FLOCK 2K-17 (42888 NORAD) Tracking and Keplerian Element Data

This shows tracking and keplerian element data for the satellite.

Feedback or suggestion? Click here.




ElementValue
Catalog42888
NameFLOCK 2K-17
Epoch Orbit3282
Epoch Day45.61412674
Epoch Year2018
RAAN308.4575
Inclination96.9923
Eccentricity0.0012553
Argument of Perigee174.9969
Mean Anonmoly185.1404
Mean Motion15.35565623
Decay Rate2.472E-05
L11 42888U 17042BR 18045.61412674 .00002472 00000-0 73510-4 0 9998
L22 42888 96.9923 308.4575 0012553 174.9969 185.1404 15.35565623 32822

Live tracking and technical data element details for FLOCK 2K-17 (NORAD 42888). FLOCK 2K-17 can be tracked NOW for your location showing map with azimuth and elevation plus other details from your city location.

Track the satellite on the map from your city or location and see movement details for azimuth, elevation, latitude, longitude, range, height, and movement on the map or in text.







IsCatalogInMostPopularTable: catalog: 42888, numindb: 145
Update: records affected: 1



GetName: 42888 FLOCK 2K-17

Hit Count: updated at: Mon, 19 Nov 2018 13:48:08 GMT